Location: Maiden_LMO
(35.5760°N, 81.2120°W)
Time: 05:22:20
(UTC-05:00)

ADEOS II - Visible Passes

Search period start: 27 January 2015 00:00
Search period end: 06 February 2015 00:00
Orbit: 800 x 803 km, 98.3° (Epoch: 26 January)

Date Brightness Start Highest point End Pass type
(mag) Time Alt. Az. Time Alt. Az. Time Alt. Az.
27 Jan 4.7 05:04:10 10° NE 05:07:45 19° E 05:11:32 10° SE visible
27 Jan 2.4 06:42:47 10° N 06:47:47 44° WNW 06:52:44 10° SW visible
28 Jan 2.0 06:16:28 10° N 06:21:45 80° WNW 06:27:00 10° SSW visible
29 Jan 2.8 05:50:27 10° NNE 05:55:38 57° E 06:00:48 10° S visible
29 Jan 5.3 18:49:48 10° WSW 18:52:23 13° W 18:54:39 10° WNW visible
30 Jan 3.9 05:24:47 10° NE 05:29:24 31° E 05:34:04 10° SSE visible
30 Jan 4.8 18:21:41 10° SSW 18:25:57 24° W 18:30:07 10° NW visible
31 Jan 4.8 04:59:43 10° NE 05:03:01 17° E 05:06:34 10° SE visible
31 Jan 2.3 06:38:03 10° N 06:43:07 49° WNW 06:48:09 10° SW visible
01 Feb 2.1 06:11:47 10° NNE 06:17:04 87° WNW 06:22:21 10° SSW visible
02 Feb 2.9 05:45:49 10° NNE 05:50:56 52° E 05:56:03 10° S visible
02 Feb 5.3 18:44:40 10° SW 18:47:39 15° W 18:50:21 10° WNW visible
03 Feb 4.1 05:20:13 10° NE 05:24:41 28° E 05:29:13 10° SSE visible
03 Feb 4.6 18:16:48 10° SSW 18:21:14 27° W 18:25:35 10° NW visible
04 Feb 5.0 04:55:18 10° NE 04:58:17 16° E 05:01:31 10° SE visible
04 Feb 2.2 06:33:19 10° N 06:38:27 53° WNW 06:43:32 10° SSW visible
05 Feb 2.1 06:07:06 10° NNE 06:12:23 85° E 06:17:40 10° SSW visible
